Meath Environmental Platform

Observations for Trim Patrick St

Time AQI Temp °C Hum % Pres Pa CO μg/m³ H₂S μg/m³ NO μg/m³ NO₂ μg/m³ O₃ μg/m³ SO₂ μg/m³ PM1 μg/m³ PM2.5 μg/m³ PM10 μg/m³
Saturday 8 August 2026
11:30 1 26.1 44 69,084 0 0 1.3 10.13 66.75 7.19 2 6.81 7.49
11:29 1 26 44 69,098 0 0 1.2 10.13 54.41 6.75 2 6.8 7.48
11:28 1 25.9 45 69,086 0 0 1.32 10.45 63.72 6.87 2.86 7.52 8.27
11:27 1 25.9 45 69,072 0 0 1.4 10.15 52.05 6.63 2 7.48 8.22
11:26 1 25.8 45 69,084 0 0 1.42 10.45 68.65 7.07 2.86 7.52 8.27
11:25 1 25.7 45 69,090 0 0 1.48 10.55 62.63 6.69 2.86 7.48 8.23
11:24 1 25.7 46 69,104 0 0 1.47 10.5 60.18 6.31 2 7.46 8.21
11:23 1 25.6 45 69,094 0 0 1.45 8.99 50.79 6.63 2 7.48 8.23
11:22 1 25.5 46 69,108 0 0 1.46 10.88 57.5 7.05 2.86 7.4 8.15
11:21 1 25.4 47 69,120 0 0 1.51 10.92 66.44 7.22 2 6.63 7.29
11:20 1 25.3 46 69,108 0 0 1.43 11.9 59.98 6.79 2 7.4 8.15
11:19 1 25.3 47 69,096 0 0 1.59 11.27 68.54 6.78 2.86 8.16 8.97
11:18 1 25.2 47 69,078 0 0 1.61 11.97 74.44 6.95 2.86 7.37 8.11
11:17 1 25.1 47 69,078 0 0 1.58 11.43 68.69 6.67 2.86 8.12 8.93
11:16 1 25.1 47 69,084 0 0 1.66 11.86 62.6 6.48 2 7.38 8.12
11:15 1 25 47 69,090 0 0 1.76 10.95 68.55 7.11 2.86 8.16 8.97
11:14 1 25 47 69,096 0 2.14 1.78 11.98 73.95 7.19 2.86 7.36 8.1
11:13 1 25 47 69,104 0 0 1.8 12.14 71.13 5.85 2.86 8.93 9.83
11:12 1 25 47 69,088 0 0 1.77 11.3 62.62 6.45 2 6.6 7.26
11:11 1 24.9 47 69,096 0 0 1.83 11.38 73.44 6.78 2.86 7.37 8.1